Danville, IN

11:12 AM EST on December 10, 2019 (GMT -0500)
Vermilion County

Weather History for KDNV - November, 2019

Change the Weather History Date:

Friday, November 15, 2019

  Actual Average (WUND) Record (WUND)
Temperature  
Mean Temperature 30 °F -  
Max Temperature 42 °F - - (-1)
Min Temperature 19 °F - - (-1)
Degree Days  
Heating Degree Days 34    
Moisture  
Dew Point 24 °F    
Average Humidity 78    
Maximum Humidity 91    
Minimum Humidity 56    
Precipitation  
Precipitation 0.00 in - - ()
Sea Level Pressure  
Sea Level Pressure 30.35 in    
Wind  
Wind Speed 4 mph ()    
Max Wind Speed 9 mph    
Max Gust Speed -    
Visibility 8.3 miles    
Events      
Averages and records for this station are not official NWS values.
T = Trace of Precipitation, MM = Missing Value Source: Averaged Metar Reports

Daily Weather History Graph

Daily Weather History Graph

Search for Another Location

Airport or City:

Astronomy

Nov. 15, 2019 Rise Set
Actual Time 6:35 AM CST 4:33 PM CST
Civil Twilight 6:06 AM CST 5:02 PM CST
Nautical Twilight 5:33 AM CST 5:35 PM CST
Astronomical Twilight 5:01 AM CST 6:07 PM CST
Moon 7:08 PM CST (11/15) 9:32 AM CST (11/15)
Length of Visible Light 10h 56m
Length of Day
9h 57m
Waning Gibbous, 90% of the Moon is Illuminated
Nov 15
Waning Gibbous
Nov 19
Last Quarter
Nov 26
New
Dec 4
First Quarter
Dec 11
Full

Hourly Weather History & Observations

Time (CST) Temp. Windchill Dew Point Humidity Pressure Visibility Wind Dir Wind Speed Gust Speed Precip Events Conditions
12:15 AM 30.7 °F 24.9 °F 24.1 °F 76% 30.32 in 7.0 mi WNW 5.8 mph - N/A   Overcast
12:35 AM 29.3 °F 24.3 °F 23.4 °F 78% 30.32 in 7.0 mi WNW 4.6 mph - N/A   Scattered Clouds
12:55 AM 27.9 °F 24.0 °F 22.3 °F 80% 30.33 in 7.0 mi WNW 3.5 mph - N/A   Clear
1:15 AM 27.7 °F 23.8 °F 22.1 °F 80% 30.34 in 7.0 mi West 3.5 mph - N/A   Clear
1:35 AM 27.1 °F 23.2 °F 21.9 °F 81% 30.34 in 5.0 mi West 3.5 mph - N/A   Haze
1:55 AM 25.5 °F 21.3 °F 20.8 °F 82% 30.34 in 7.0 mi WNW 3.5 mph - N/A   Clear
2:15 AM 24.8 °F 19.1 °F 20.3 °F 83% 30.33 in 7.0 mi West 4.6 mph - N/A   Clear
2:35 AM 24.8 °F 19.1 °F 20.5 °F 84% 30.33 in 7.0 mi West 4.6 mph - N/A   Clear
2:55 AM 23.9 °F 16.8 °F 19.9 °F 85% 30.33 in 7.0 mi WNW 5.8 mph - N/A   Clear
3:35 AM 23.0 °F 15.8 °F 19.2 °F 85% 30.33 in 7.0 mi WNW 5.8 mph - N/A   Clear
3:55 AM 23.0 °F 15.8 °F 19.4 °F 86% 30.34 in 7.0 mi WNW 5.8 mph - N/A   Clear
4:15 AM 22.5 °F 17.8 °F 19.0 °F 87% 30.34 in 7.0 mi WNW 3.5 mph - N/A   Clear
4:35 AM 22.1 °F - 19.0 °F 88% 30.34 in 7.0 mi Calm Calm - N/A   Clear
4:55 AM 20.8 °F - 18.1 °F 89% 30.35 in 7.0 mi Calm Calm - N/A   Clear
5:15 AM 21.2 °F - 18.5 °F 89% 30.35 in 5.0 mi Calm Calm - N/A   Clear
5:35 AM 21.0 °F 16.2 °F 18.9 °F 91% 30.35 in 5.0 mi West 3.5 mph - N/A   Clear
5:55 AM 19.9 °F 13.4 °F 17.8 °F 91% 30.36 in 5.0 mi West 4.6 mph - N/A   Clear
6:15 AM 20.5 °F 15.6 °F 18.0 °F 90% 30.36 in 7.0 mi West 3.5 mph - N/A   Clear
6:35 AM 20.8 °F 16.0 °F 18.1 °F 89% 30.36 in 7.0 mi West 3.5 mph - N/A   Clear
6:55 AM 20.3 °F 15.4 °F 17.6 °F 89% 30.36 in 7.0 mi West 3.5 mph - N/A   Clear
7:15 AM 21.9 °F 17.2 °F 19.4 °F 90% 30.36 in 7.0 mi WSW 3.5 mph - N/A   Clear
7:35 AM 23.0 °F 18.4 °F 20.5 °F 90% 30.36 in 5.0 mi SSW 3.5 mph - N/A   Clear
7:55 AM 24.4 °F 20.1 °F 21.0 °F 87% 30.37 in 5.0 mi SSW 3.5 mph - N/A   Clear
8:15 AM 25.7 °F 21.5 °F 21.4 °F 84% 30.37 in 7.0 mi WSW 3.5 mph - N/A   Clear
8:35 AM 27.9 °F 22.6 °F 22.6 °F 81% 30.36 in 7.0 mi WSW 4.6 mph - N/A   Clear
8:55 AM 29.5 °F 23.4 °F 21.9 °F 73% 30.37 in 10.0 mi West 5.8 mph - N/A   Clear
9:15 AM 30.2 °F 23.4 °F 21.9 °F 71% 30.36 in 10.0 mi WSW 6.9 mph - N/A   Clear
9:35 AM 31.5 °F 26.8 °F 22.5 °F 69% 30.37 in 10.0 mi WSW 4.6 mph - N/A   Clear
9:55 AM 32.0 °F 28.7 °F 22.6 °F 68% 30.37 in 10.0 mi SW 3.5 mph - N/A   Clear
10:15 AM 32.7 °F 28.3 °F 22.8 °F 67% 30.37 in 10.0 mi SW 4.6 mph - N/A   Clear
10:35 AM 34.0 °F 31.0 °F 23.4 °F 65% 30.37 in 10.0 mi SW 3.5 mph - N/A   Clear
10:55 AM 34.9 °F 29.9 °F 23.5 °F 63% 30.36 in 10.0 mi WSW 5.8 mph - N/A   Clear
11:15 AM 36.0 °F 31.1 °F 24.4 °F 63% 30.35 in 10.0 mi SW 5.8 mph - N/A   Clear
11:35 AM 37.2 °F 31.9 °F 24.8 °F 61% 30.35 in 10.0 mi WSW 6.9 mph - N/A   Clear
11:55 AM 37.9 °F 32.7 °F 25.2 °F 60% 30.34 in 10.0 mi WSW 6.9 mph - N/A   Clear
12:15 PM 39.0 °F 34.8 °F 25.3 °F 58% 30.34 in 10.0 mi WSW 5.8 mph - N/A   Clear
12:35 PM 40.1 °F 36.9 °F 25.3 °F 56% 30.34 in 10.0 mi WNW 4.6 mph - N/A   Clear
12:55 PM 40.1 °F 36.9 °F 26.6 °F 59% 30.34 in 10.0 mi West 4.6 mph - N/A   Clear
1:15 PM 40.6 °F 34.8 °F 26.2 °F 57% 30.33 in 10.0 mi WNW 9.2 mph - N/A   Clear
1:35 PM 41.2 °F 37.3 °F 27.9 °F 59% 30.33 in 10.0 mi West 5.8 mph - N/A   Clear
1:55 PM 41.0 °F 39.0 °F 27.3 °F 58% 30.33 in 10.0 mi West 3.5 mph - N/A   Clear
2:15 PM 41.9 °F 38.2 °F 27.3 °F 56% 30.32 in 10.0 mi West 5.8 mph - N/A   Clear
2:55 PM 41.9 °F 39.0 °F 27.5 °F 57% 30.33 in 10.0 mi NW 4.6 mph - N/A   Clear
3:15 PM 42.1 °F 37.7 °F 28.8 °F 59% 30.33 in 10.0 mi NW 6.9 mph - N/A   Clear
3:35 PM 41.5 °F 38.6 °F 28.8 °F 60% 30.33 in 10.0 mi NNW 4.6 mph - N/A   Clear
4:15 PM 38.3 °F 33.9 °F 30.2 °F 73% 30.34 in 10.0 mi North 5.8 mph - N/A   Clear
4:35 PM 36.1 °F 32.3 °F 29.3 °F 76% 30.34 in 10.0 mi North 4.6 mph - N/A   Clear
4:55 PM 34.9 °F 30.8 °F 29.1 °F 79% 30.34 in 10.0 mi NNE 4.6 mph - N/A   Clear
5:15 PM 34.2 °F 31.2 °F 29.1 °F 82% 30.34 in 10.0 mi NNE 3.5 mph - N/A   Clear
5:35 PM 32.0 °F 28.7 °F 28.2 °F 86% 30.35 in 10.0 mi ENE 3.5 mph - N/A   Clear
5:55 PM 32.4 °F - 28.8 °F 87% 30.35 in 10.0 mi Calm Calm - N/A   Clear
6:35 PM 31.5 °F 28.1 °F 27.9 °F 87% 30.35 in 10.0 mi NNE 3.5 mph - N/A   Clear
6:55 PM 32.0 °F - 28.4 °F 87% 30.35 in 10.0 mi Calm Calm - N/A   Mostly Cloudy
7:15 PM 32.0 °F - 29.1 °F 89% 30.35 in 7.0 mi Calm Calm - N/A   Overcast
7:35 PM 32.0 °F - 29.3 °F 90% 30.36 in 7.0 mi Calm Calm - N/A   Overcast
7:55 PM 32.0 °F - 29.3 °F 90% 30.35 in 7.0 mi Calm Calm - N/A   Overcast
8:15 PM 32.4 °F - 29.8 °F 90% 30.36 in 7.0 mi Calm Calm - N/A   Overcast
8:35 PM 33.6 °F - 29.7 °F 85% 30.36 in 10.0 mi Calm Calm - N/A   Overcast
9:15 PM 33.8 °F - 28.6 °F 81% 30.36 in 10.0 mi Calm Calm - N/A   Scattered Clouds
9:35 PM 32.4 °F - 28.4 °F 85% 30.36 in 10.0 mi Calm Calm - N/A   Clear
9:55 PM 31.8 °F - 27.9 °F 85% 30.36 in 7.0 mi Calm Calm - N/A   Clear
10:15 PM 30.2 °F - 27.1 °F 88% 30.36 in 7.0 mi Calm Calm - N/A   Mostly Cloudy
10:35 PM 32.0 °F - 28.2 °F 86% 30.37 in 7.0 mi Calm Calm - N/A   Overcast
10:55 PM 32.7 °F 27.3 °F 28.4 °F 84% 30.37 in 10.0 mi NE 5.8 mph - N/A   Overcast
11:15 PM 33.6 °F 29.4 °F 28.6 °F 82% 30.37 in 10.0 mi NE 4.6 mph - N/A   Overcast
11:35 PM 32.9 °F 26.7 °F 28.4 °F 84% 30.37 in 7.0 mi NE 6.9 mph - N/A   Scattered Clouds
11:55 PM 32.0 °F 25.6 °F 28.2 °F 86% 30.37 in 7.0 mi NE 6.9 mph - N/A   Clear